CQ0XPA-11 Weather Reports


time (UTC)temp
C
wind
direction
speed
KPH
gust
KPH
rain 1hr
cm
rain 24hr
cm
rain mn
cm
humidity
%
barometer
mb
20181215182929 13 303 0.0 0.0 0.00 0.00 0.00 100 1019.7
20181215182727 13 337 0.0 0.0 0.00 0.00 0.00 99 1019.7
20181215182525 13 135 0.0 0.0 0.00 0.00 0.00 99 1019.7
20181215182323 13 123 0.0 0.0 0.00 0.00 0.00 99 1019.7
20181215182121 13 146 0.0 0.0 0.00 0.00 0.00 99 1019.8
20181215181918 13 180 0.0 0.0 0.00 0.00 0.00 99 1019.7
20181215181717 13 180 0.0 0.0 0.00 0.00 0.00 98 1019.7
20181215181514 13 135 0.0 0.0 0.00 0.00 0.00 97 1019.6
20181215181313 13 146 0.0 0.0 0.00 0.00 0.00 97 1019.6
20181215181110 13 180 0.0 0.0 0.00 0.00 0.00 97 1019.6
20181215180908 13 135 0.0 0.0 0.00 0.00 0.00 97 1019.6
20181215180706 13 337 0.0 0.0 0.00 0.00 0.00 96 1019.6
20181215180504 13 191 0.0 0.0 0.00 0.00 0.00 96 1019.6
20181215180302 13 337 0.0 0.0 0.00 0.00 0.00 96 1019.6
20181215180100 13 180 0.0 0.0 0.00 0.00 0.00 96 1019.6
20181215175858 13 303 0.0 0.0 0.00 0.00 0.00 96 1019.6
20181215175656 13 180 0.0 0.0 0.00 0.00 0.00 95 1019.6
20181215175454 13 337 0.0 0.0 0.00 0.00 0.00 95 1019.6
20181215175252 13 337 0.0 0.0 0.00 0.00 0.00 96 1019.7
20181215175049 13 180 0.0 0.0 0.00 0.00 0.00 96 1019.6
20181215174848 13 135 0.0 0.0 0.00 0.00 0.00 96 1019.5
20181215174645 13 157 0.0 0.0 0.00 0.00 0.00 95 1019.6
20181215174039 13 135 0.0 0.0 0.00 0.00 0.00 95 1019.5
20181215173837 13 157 0.0 0.0 0.00 0.00 0.00 95 1019.5
20181215173635 13 157 0.0 0.0 0.00 0.00 0.00 95 1019.5
20181215173433 13 135 0.0 0.0 0.00 0.00 0.00 95 1019.5
20181215173231 13 180 0.0 0.0 0.00 0.00 0.00 95 1019.5
20181215173029 13 180 0.0 0.0 0.00 0.00 0.00 95 1019.5
20181215172827 13 157 0.0 0.0 0.00 0.00 0.00 95 1019.5
20181215172624 13 180 0.0 0.0 0.00 0.00 0.00 95 1019.5
20181215172423 13 180 0.0 0.0 0.00 0.00 0.00 93 1019.5
20181215172220 13 180 0.0 0.0 0.00 0.00 0.00 93 1019.5
20181215172019 13 180 0.0 0.0 0.00 0.00 0.00 93 1019.5
20181215171816 13 157 0.0 0.0 0.00 0.00 0.00 93 1019.5
20181215171615 14 123 0.0 0.0 0.00 0.00 0.00 93 1019.5
20181215171412 14 135 0.0 0.0 0.00 0.00 0.00 93 1019.5
20181215171211 14 180 0.0 0.0 0.00 0.00 0.00 93 1019.4
20181215170804 14 337 0.0 0.0 0.00 0.00 0.00 92 1019.5
20181215170601 14 180 0.0 0.0 0.00 0.00 0.00 92 1019.4
20181215170359 14 247 0.0 0.0 0.00 0.00 0.00 92 1019.5
20181215170157 14 135 0.0 0.0 0.00 0.00 0.00 92 1019.4
20181215165955 14 180 0.0 0.0 0.00 0.00 0.00 92 1019.5
20181215165753 14 146 0.0 0.0 0.00 0.00 0.00 92 1019.4
20181215165551 14 180 0.0 0.0 0.00 0.00 0.00 91 1019.4
20181215165348 14 236 0.0 0.0 0.00 0.00 0.00 91 1019.4
20181215165147 14 270 0.0 0.0 0.00 0.00 0.00 91 1019.4
20181215164944 14 180 0.0 0.0 0.00 0.00 0.00 91 1019.4
20181215164743 14 225 0.0 0.0 0.00 0.00 0.00 90 1019.4
20181215164339 14 180 0.0 0.0 0.00 0.00 0.00 90 1019.3
20181215164136 14 202 0.0 0.0 0.00 0.00 0.00 89 1019.4
20181215163934 14 337 0.0 0.0 0.00 0.00 0.00 89 1019.4
20181215163732 14 180 0.0 0.0 0.00 0.00 0.00 90 1019.4
20181215163530 14 337 0.0 0.0 0.00 0.00 0.00 89 1019.4
20181215163328 14 270 0.0 0.0 0.00 0.00 0.00 89 1019.6
20181215163126 14 270 0.0 0.0 0.00 0.00 0.00 89 1019.5
20181215162924 14 337 0.0 0.0 0.00 0.00 0.00 88 1019.4
20181215162722 14 303 0.0 0.0 0.00 0.00 0.00 88 1019.4
20181215162519 14 337 0.0 0.0 0.00 0.00 0.00 88 1019.6
20181215162318 14 303 0.0 0.0 0.00 0.00 0.00 88 1019.7
20181215162115 14 180 0.0 0.0 0.00 0.00 0.00 88 1019.7
20181215161914 14 135 0.0 0.0 0.00 0.00 0.00 88 1019.7
20181215161711 14 337 0.0 0.0 0.00 0.00 0.00 88 1019.7
20181215161510 14 202 0.0 0.0 0.00 0.00 0.00 88 1019.8
20181215161307 14 135 0.0 0.0 0.00 0.00 0.00 88 1019.8
20181215161106 14 315 0.0 0.0 0.00 0.00 0.00 88 1019.9
20181215160903 14 270 0.0 0.0 0.00 0.00 0.00 88 1019.9
20181215160701 14 337 0.0 0.0 0.00 0.00 0.00 88 1019.8
20181215160459 14 337 0.0 0.0 0.00 0.00 0.00 88 1019.8
20181215160257 14 180 0.0 0.0 0.00 0.00 0.00 88 1019.7
20181215160055 14 157 0.0 0.0 0.00 0.00 0.00 88 1019.8
20181215155853 14 303 0.0 0.0 0.00 0.00 0.00 89 1019.9
20181215155651 14 303 0.0 0.0 0.00 0.00 0.00 89 1020.0
20181215155449 14 180 0.0 0.0 0.00 0.00 0.00 90 1019.9
20181215155246 14 225 0.0 0.0 0.00 0.00 0.00 90 1019.8
20181215155045 14 247 0.0 0.0 0.00 0.00 0.00 90 1019.8
20181215154842 14 180 0.0 0.0 0.00 0.00 0.00 89 1019.8
20181215154641 14 180 0.0 0.0 0.00 0.00 0.00 90 1019.8
20181215154438 14 180 0.0 0.0 0.00 0.00 0.00 90 1020.0
20181215154236 14 337 0.0 0.0 0.00 0.00 0.00 90 1020.0
20181215153428 14 337 0.0 0.0 0.00 0.00 0.00 90 1020.0
20181215153226 14 180 0.0 0.0 0.00 0.00 0.00 91 1020.0
20181215153024 14 180 0.0 0.0 0.00 0.00 0.00 90 1020.0
20181215152821 14 270 0.0 0.0 0.00 0.00 0.00 90 1020.0
20181215152620 14 337 0.0 0.0 0.00 0.00 0.00 90 1020.0
20181215152417 14 135 0.0 0.0 0.00 0.00 0.00 90 1019.8
20181215152216 14 303 0.0 0.0 0.00 0.00 0.00 90 1019.9
20181215152013 14 270 0.0 0.0 0.00 0.00 0.00 90 1019.9
20181215151812 14 112 0.0 0.0 0.00 0.00 0.00 90 1019.9
20181215151609 14 337 0.0 0.0 0.00 0.00 0.00 90 1020.0
20181215151407 14 191 0.0 0.0 0.00 0.00 0.00 90 1019.9
20181215151205 14 303 0.0 0.0 0.00 0.00 0.00 91 1019.9
20181215151003 14 225 0.0 0.0 0.00 0.00 0.00 90 1020.0
20181215150801 14 135 0.0 0.0 0.00 0.00 0.00 90 1019.8
20181215150559 14 90 0.0 0.0 0.00 0.00 0.00 90 1019.9
20181215150357 14 157 0.0 0.0 0.00 0.00 0.00 91 1019.9
20181215150155 14 337 0.0 0.0 0.00 0.00 0.00 92 1019.9
20181215145953 14 270 0.0 0.0 0.00 0.00 0.00 92 1019.9
20181215145751 14 22 0.0 0.0 0.00 0.00 0.00 92 1019.9
20181215145548 14 236 0.0 0.0 0.00 0.00 0.00 93 1019.8
20181215145347 14 180 0.0 0.0 0.00 0.00 0.00 92 1019.7
20181215145144 14 157 0.0 0.0 0.00 0.00 0.00 93 1019.8
20181215144943 14 180 0.0 0.0 0.00 0.00 0.00 93 1019.8
20181215144740 14 337 0.0 0.0 0.00 0.00 0.00 93 1019.7
20181215144539 14 157 0.0 0.0 0.00 0.00 0.00 93 1019.8
20181215144336 14 180 0.0 0.0 0.00 0.00 0.00 93 1019.7
20181215144134 14 45 0.0 0.0 0.00 0.00 0.00 93 1019.7
20181215143932 14 180 0.0 0.0 0.00 0.00 0.00 92 1019.8
20181215143730 14 168 0.0 0.0 0.00 0.00 0.00 92 1019.9
20181215143528 14 135 0.0 0.0 0.00 0.00 0.00 92 1019.8
20181215143326 14 337 0.0 0.0 0.00 0.00 0.00 92 1019.9
20181215143124 14 225 0.0 0.0 0.00 0.00 0.00 92 1019.9
20181215142922 14 180 0.0 0.0 0.00 0.00 0.00 92 1019.8
20181215142719 14 180 0.0 0.0 0.00 0.00 0.00 92 1019.7
20181215142518 14 135 0.0 0.0 0.00 0.00 0.00 92 1019.7
20181215142315 14 157 0.0 0.0 0.00 0.00 0.00 92 1019.9
20181215142114 14 180 0.0 0.0 0.00 0.00 0.00 92 1019.9
20181215141911 14 180 0.0 0.0 0.00 0.00 0.00 92 1020.0
20181215141710 14 337 0.0 0.0 0.00 0.00 0.00 92 1019.9
20181215141507 15 180 0.0 0.0 0.00 0.00 0.00 92 1020.0
20181215141305 15 337 0.0 0.0 0.00 0.00 0.00 92 1019.9
20181215141103 15 135 0.0 0.0 0.00 0.00 0.00 92 1019.9
20181215140901 15 247 0.0 0.0 0.00 0.00 0.00 92 1019.8
20181215140255 15 180 0.0 0.0 0.00 0.00 0.00 92 1019.9
20181215140053 15 337 0.0 0.0 0.00 0.00 0.00 92 1019.9
20181215135850 15 135 0.0 0.0 0.00 0.00 0.00 92 1020.0
20181215135649 15 180 0.0 0.0 0.00 0.00 0.00 92 1019.9
20181215135446 15 157 0.0 0.0 0.00 0.00 0.00 92 1020.0
20181215135245 15 112 0.0 0.0 0.00 0.00 0.00 92 1020.0
20181215135042 15 303 0.0 0.0 0.00 0.00 0.00 92 1020.0
20181215134841 15 202 0.0 0.0 0.00 0.00 0.00 92 1020.0
20181215134638 14 303 0.0 0.0 0.00 0.00 0.00 93 1020.0
20181215134436 14 112 0.0 0.0 0.00 0.00 0.00 92 1020.0
20181215134234 14 157 0.0 0.0 0.00 0.00 0.00 92 1020.1
20181215133830 14 180 0.0 0.0 0.00 0.00 0.00 92 1020.2
20181215133628 14 337 0.0 0.0 0.00 0.00 0.00 92 1020.3
20181215133426 14 112 0.0 0.0 0.00 0.00 0.00 91 1020.4
20181215133224 14 135 0.0 0.0 0.00 0.00 0.00 91 1020.4
20181215133021 15 337 0.0 0.0 0.00 0.00 0.00 91 1020.4
20181215132820 15 225 0.0 0.0 0.00 0.00 0.00 91 1020.4
20181215132617 15 112 0.0 0.0 0.00 0.00 0.00 91 1020.4
20181215132416 15 180 0.0 0.0 0.00 0.00 0.00 91 1020.5
20181215132213 15 202 0.0 0.0 0.00 0.00 0.00 90 1020.4
20181215132012 15 225 0.0 0.0 0.00 0.00 0.00 92 1020.6
20181215131809 15 180 0.0 0.0 0.00 0.00 0.00 92 1020.5
20181215131607 15 157 0.0 0.0 0.00 0.00 0.00 92 1020.6
20181215131405 15 225 0.0 0.0 0.00 0.00 0.00 91 1020.6
20181215131203 15 247 0.0 0.0 0.00 0.00 0.00 91 1020.7
20181215131001 14 112 0.0 0.0 0.00 0.00 0.00 91 1020.7
20181215130759 14 225 0.0 0.0 0.00 0.00 0.00 91 1020.7
20181215130557 14 90 0.0 0.0 0.00 0.00 0.00 92 1020.7
20181215130355 14 337 0.0 0.0 0.00 0.00 0.00 91 1020.7
20181215130152 15 180 0.0 0.0 0.00 0.00 0.00 91 1020.8
20181215125951 15 270 0.0 0.0 0.00 0.00 0.00 92 1020.8
20181215125748 15 135 0.0 0.0 0.00 0.00 0.00 92 1020.8
20181215125547 14 135 0.0 0.0 0.00 0.00 0.00 91 1020.8
20181215125344 15 135 0.0 0.0 0.00 0.00 0.00 92 1020.8
20181215125143 15 180 0.0 0.0 0.00 0.00 0.00 92 1020.9
20181215124940 15 135 0.0 0.0 0.00 0.00 0.00 92 1021.0
20181215124738 15 180 0.0 0.0 0.00 0.00 0.00 92 1021.0
20181215124536 15 157 0.0 0.0 0.00 0.00 0.00 92 1021.0
20181215124334 15 303 0.0 0.0 0.00 0.00 0.00 91 1021.1
20181215124132 15 303 0.0 0.0 0.00 0.00 0.00 92 1021.1
20181215123930 15 337 0.0 0.0 0.00 0.00 0.00 92 1021.1
20181215123728 15 112 0.0 0.0 0.00 0.00 0.00 92 1021.2
20181215123526 15 337 0.0 0.0 0.00 0.00 0.00 91 1021.2
20181215123323 15 180 0.0 0.0 0.00 0.00 0.00 91 1021.3
20181215122919 15 337 0.0 0.0 0.00 0.00 0.00 91 1021.3
20181215122718 15 112 0.0 0.0 0.00 0.00 0.00 92 1021.3
20181215122515 15 157 0.0 0.0 0.00 0.00 0.00 91 1021.3
20181215122314 15 180 0.0 0.0 0.00 0.00 0.00 92 1021.4
20181215122111 14 337 0.0 0.0 0.00 0.00 0.00 93 1021.4
20181215121909 14 247 0.0 0.0 0.00 0.00 0.00 92 1021.5
20181215121707 14 135 0.0 0.0 0.00 0.00 0.00 92 1021.5
20181215121506 14 180 0.0 0.0 0.00 0.00 0.00 92 1021.5
20181215121303 14 270 0.0 0.0 0.00 0.00 0.00 92 1021.5
20181215121101 14 247 0.0 0.0 0.00 0.00 0.00 92 1021.6
20181215120859 14 303 0.0 0.0 0.00 0.00 0.00 92 1021.7
20181215120657 14 270 0.0 0.0 0.00 0.00 0.00 91 1021.6
20181215120253 14 112 0.0 0.0 0.00 0.00 0.00 92 1021.6
20181215120050 14 67 0.0 0.0 0.00 0.00 0.00 93 1021.7
20181215115849 14 180 0.0 0.0 0.00 0.00 0.00 92 1021.7
20181215115646 14 303 0.0 0.0 0.00 0.00 0.00 94 1021.7
20181215115445 14 303 0.0 0.0 0.00 0.00 0.00 93 1021.6
20181215115242 14 337 0.0 0.0 0.00 0.00 0.00 95 1021.7
20181215115040 14 135 0.0 0.0 0.00 0.00 0.00 96 1021.6
20181215114838 14 112 0.0 0.0 0.00 0.00 0.00 95 1021.6
20181215114636 14 180 0.0 0.0 0.00 0.00 0.00 95 1021.7
20181215113828 14 180 0.0 0.0 0.00 0.00 0.00 96 1021.7
20181215113625 14 157 0.0 0.0 0.00 0.00 0.00 97 1021.6
20181215113424 14 270 0.0 0.0 0.00 0.00 0.00 96 1021.6
20181215113221 13 135 0.0 0.0 0.00 0.00 0.00 96 1021.7
20181215113020 13 112 0.0 0.0 0.00 0.00 0.00 97 1021.8
20181215112413 13 135 0.0 0.0 0.00 0.00 0.00 99 1021.8
20181215111201 13 337 0.0 0.0 0.00 0.00 0.00 100 1022.1
20181215110959 13 225 0.0 0.0 0.00 0.00 0.00 100 1022.1
20181215110756 13 180 0.0 0.0 0.00 0.00 0.00 100 1022.2
20181215110555 13 180 0.0 0.0 0.00 0.00 0.00 100 1022.2
20181215110352 13 180 0.0 0.0 0.00 0.00 0.00 100 1022.2
20181215110151 12 135 0.0 0.0 0.00 0.00 0.00 100 1022.2
20181215105948 12 112 0.0 0.0 0.00 0.00 0.00 100 1022.2
20181215105747 12 157 0.0 0.0 0.00 0.00 0.00 100 1022.2
20181215105544 12 157 0.0 0.0 0.00 0.00 0.00 100 1022.2
20181215105342 12 135 0.0 0.0 0.00 0.00 0.00 100 1022.3
20181215105140 12 157 0.0 0.0 0.00 0.00 0.00 100 1022.3
20181215104938 12 180 0.0 0.0 0.00 0.00 0.00 100 1022.3
20181215104736 12 303 0.0 0.0 0.00 0.00 0.00 100 1022.3
20181215104534 12 180 0.0 0.0 0.00 0.00 0.00 100 1022.3
20181215104332 12 337 0.0 0.0 0.00 0.00 0.00 100 1022.4
20181215104130 11 135 0.0 0.0 0.00 0.00 0.00 100 1022.5
20181215103928 11 270 0.0 0.0 0.00 0.00 0.00 100 1022.4
20181215103726 11 180 0.0 0.0 0.00 0.00 0.00 100 1022.6
20181215103523 11 146 0.0 0.0 0.00 0.00 0.00 100 1022.5
20181215103322 11 168 0.0 0.0 0.00 0.00 0.00 100 1022.4
20181215103119 11 180 0.0 0.0 0.00 0.00 0.00 100 1022.5
20181215102918 11 180 0.0 0.0 0.00 0.00 0.00 100 1022.5
20181215102715 11 135 0.0 0.0 0.00 0.00 0.00 100 1022.5
20181215102513 11 135 0.0 0.0 0.00 0.00 0.00 100 1022.5
20181215102311 11 135 0.0 0.0 0.00 0.00 0.00 100 1022.5
20181215102109 11 112 0.0 0.0 0.00 0.00 0.00 100 1022.5
20181215101907 11 112 0.0 0.0 0.00 0.00 0.00 100 1022.6
20181215101705 11 112 0.0 0.0 0.00 0.00 0.00 100 1022.6
20181215101503 11 112 0.0 0.0 0.00 0.00 0.00 100 1022.6
20181215101301 11 112 0.0 0.0 0.00 0.00 0.00 100 1022.6
20181215101059 11 270 0.0 0.0 0.00 0.00 0.00 100 1022.5
20181215100857 11 337 0.0 0.0 0.00 0.00 0.00 100 1022.5
20181215100453 11 270 0.0 0.0 0.00 0.00 0.00 100 1022.5
20181215100250 11 112 0.0 0.0 0.00 0.00 0.00 100 1022.4
20181215100049 11 112 0.0 0.0 0.00 0.00 0.00 100 1022.4
20181215095846 11 112 0.0 0.0 0.00 0.00 0.00 100 1022.5
20181215095645 11 112 0.0 0.0 0.00 0.00 0.00 100 1022.4
20181215095442 11 112 0.0 0.0 0.00 0.00 0.00 100 1022.4
20181215095240 11 112 0.0 0.0 0.00 0.00 0.00 100 1022.4
20181215095038 11 112 0.0 0.0 0.00 0.00 0.00 100 1022.4
20181215094429 10 337 0.0 0.0 0.00 0.00 0.00 100 1022.3
20181215094227 10 337 0.0 0.0 0.00 0.00 0.00 100 1022.3
20181215094025 10 337 0.0 0.0 0.00 0.00 0.00 100 1022.3
20181215093822 10 225 0.0 0.0 0.00 0.00 0.00 100 1022.2
20181215093621 10 112 0.0 0.0 0.00 0.00 0.00 100 1022.2
20181215093418 10 112 0.0 0.0 0.00 0.00 0.00 100 1022.1
20181215093217 10 112 0.0 0.0 0.00 0.00 0.00 100 1022.3
20181215093014 10 112 0.0 0.0 0.00 0.00 0.00 100 1022.2
20181215092813 10 112 0.0 0.0 0.00 0.00 0.00 100 1022.2
20181215092408 10 112 0.0 0.0 0.00 0.00 0.00 100 1022.1
20181215092206 10 112 0.0 0.0 0.00 0.00 0.00 100 1022.2
20181215092004 10 112 0.0 0.0 0.00 0.00 0.00 100 1022.3
20181215091802 10 0 0.0 0.0 0.00 0.00 0.00 100 1022.2
20181215091600 10 112 0.0 0.0 0.00 0.00 0.00 100 1022.1
20181215091358 10 112 0.0 0.0 0.00 0.00 0.00 100 1022.1
20181215091156 10 112 0.0 0.0 0.00 0.00 0.00 100 1022.1
20181215090752 10 0 0.0 0.0 0.00 0.00 0.00 100 1022.1
20181215090549 10 0 0.0 0.0 0.00 0.00 0.00 100 1022.0
20181215090348 10 0 0.0 0.0 0.00 0.00 0.00 100 1022.2
20181215090145 10 0 0.0 0.0 0.00 0.00 0.00 100 1022.2
20181215085944 10 0 0.0 0.0 0.00 0.00 0.00 100 1022.1
20181215085741 10 112 0.0 0.0 0.00 0.00 0.00 100 1022.1
20181215085539 10 112 0.0 0.0 0.00 0.00 0.00 100 1022.1
20181215085337 10 112 0.0 0.0 0.00 0.00 0.00 100 1022.1
20181215085135 10 270 0.0 0.0 0.00 0.00 0.00 100 1022.1
20181215084933 10 270 0.0 0.0 0.00 0.00 0.00 100 1022.1
20181215084731 10 270 0.0 0.0 0.00 0.00 0.00 100 1022.0
20181215084529 10 270 0.0 0.0 0.00 0.00 0.00 100 1021.9
20181215084327 10 270 0.0 0.0 0.00 0.00 0.00 100 1021.9
20181215084124 10 270 0.0 0.0 0.00 0.00 0.00 100 1021.9
20181215083923 10 270 0.0 0.0 0.00 0.00 0.00 100 1021.9
20181215083720 10 270 0.0 0.0 0.00 0.00 0.00 100 1021.8
20181215083519 10 270 0.0 0.0 0.00 0.00 0.00 100 1021.8
20181215083316 10 270 0.0 0.0 0.00 0.00 0.00 100 1021.7
20181215083115 10 270 0.0 0.0 0.00 0.00 0.00 100 1021.8
20181215082912 9 270 0.0 0.0 0.00 0.00 0.00 100 1021.7
20181215082710 9 270 0.0 0.0 0.00 0.00 0.00 100 1021.7
20181215082508 9 270 0.0 0.0 0.00 0.00 0.00 100 1021.6
20181215082306 9 0 0.0 0.0 0.00 0.00 0.00 100 1021.6
20181215082104 9 0 0.0 0.0 0.00 0.00 0.00 100 1021.6
20181215081902 9 0 0.0 0.0 0.00 0.00 0.00 100 1021.6
20181215081700 9 0 0.0 0.0 0.00 0.00 0.00 100 1021.7
20181215081458 9 0 0.0 0.0 0.00 0.00 0.00 100 1021.7
20181215081256 9 0 0.0 0.0 0.00 0.00 0.00 100 1021.6
20181215081054 9 112 0.0 0.0 0.00 0.00 0.00 100 1021.6
20181215080650 9 112 0.0 0.0 0.00 0.00 0.00 100 1021.7
20181215080447 9 112 0.0 0.0 0.00 0.00 0.00 100 1021.6
20181215080246 9 112 0.0 0.0 0.00 0.00 0.00 100 1021.7
20181215080043 9 112 0.0 0.0 0.00 0.00 0.00 100 1021.6
20181215075842 9 112 0.0 0.0 0.00 0.00 0.00 100 1021.6
20181215075639 10 112 0.0 0.0 0.00 0.00 0.00 100 1021.5
20181215075437 10 112 0.0 0.0 0.00 0.00 0.00 100 1021.6
20181215075235 10 112 0.0 0.0 0.00 0.00 0.00 100 1021.6
20181215075033 10 112 0.0 0.0 0.00 0.00 0.00 100 1021.6
20181215074831 10 112 0.0 0.0 0.00 0.00 0.00 100 1021.6
20181215074629 10 112 0.0 0.0 0.00 0.00 0.00 100 1021.7
20181215074427 10 112 0.0 0.0 0.00 0.00 0.00 100 1021.6
20181215074225 10 112 0.0 0.0 0.00 0.00 0.00 100 1021.5
20181215074022 10 112 0.0 0.0 0.00 0.00 0.00 100 1021.6
20181215073821 10 112 0.0 0.0 0.00 0.00 0.00 100 1021.6
20181215073618 10 112 0.0 0.0 0.00 0.00 0.00 100 1021.5
20181215073417 10 112 0.0 0.0 0.00 0.00 0.00 100 1021.4
20181215073214 10 112 0.0 0.0 0.00 0.00 0.00 100 1021.4
20181215073013 10 112 0.0 0.0 0.00 0.00 0.00 100 1021.4
20181215072810 10 112 0.0 0.0 0.00 0.00 0.00 100 1021.4
20181215072608 10 112 0.0 0.0 0.00 0.00 0.00 100 1021.4
20181215072406 10 270 0.0 0.0 0.00 0.00 0.00 100 1021.4
20181215072205 10 180 0.0 0.0 0.00 0.00 0.00 100 1021.3
20181215072002 10 180 0.0 0.0 0.00 0.00 0.00 100 1021.2
20181215071800 10 112 0.0 0.0 0.00 0.00 0.00 100 1021.4
20181215071558 10 112 0.0 0.0 0.00 0.00 0.00 100 1021.3
20181215071356 10 112 0.0 0.0 0.00 0.00 0.00 100 1021.3
20181215071153 10 270 0.0 0.0 0.00 0.00 0.00 100 1021.3
20181215070952 10 303 0.0 0.0 0.00 0.00 0.00 100 1021.2
20181215070548 10 90 0.0 0.0 0.00 0.00 0.00 100 1021.1
20181215070345 10 135 0.0 0.0 0.00 0.00 0.00 100 1021.1
20181215070144 10 135 0.0 0.0 0.00 0.00 0.00 100 1021.2
20181215065941 10 180 0.0 0.0 0.00 0.00 0.00 100 1021.2
20181215065739 10 270 0.0 0.0 0.00 0.00 0.00 100 1021.2
20181215065537 10 270 0.0 0.0 0.00 0.00 0.00 100 1021.4
20181215065335 10 146 0.0 0.0 0.00 0.00 0.00 100 1021.2
20181215065133 10 135 0.0 0.0 0.00 0.00 0.00 100 1021.3
20181215064931 10 180 0.0 0.0 0.00 0.00 0.00 100 1021.2
20181215064729 10 180 0.0 0.0 0.00 0.00 0.00 100 1021.1
20181215064527 10 180 0.0 0.0 0.00 0.00 0.00 100 1021.2
20181215064324 10 101 0.0 0.0 0.00 0.00 0.00 100 1021.2
20181215064123 10 135 0.0 0.0 0.00 0.00 0.00 100 1021.2
20181215063920 10 135 0.0 0.0 0.00 0.00 0.00 100 1021.1
20181215063719 10 157 0.0 0.0 0.00 0.00 0.00 100 1021.1
20181215063516 10 157 0.0 0.0 0.00 0.00 0.00 100 1021.0
20181215063315 10 135 0.0 0.0 0.00 0.00 0.00 100 1021.1
20181215063112 10 135 0.0 0.0 0.00 0.00 0.00 100 1021.0
20181215062910 10 146 0.0 0.0 0.00 0.00 0.00 100 1021.1
20181215062708 9 135 0.0 0.0 0.00 0.00 0.00 100 1021.1
20181215062506 9 135 0.0 0.0 0.00 0.00 0.00 100 1021.1
20181215062304 9 135 0.0 0.0 0.00 0.00 0.00 100 1021.0
20181215062102 9 337 0.0 0.0 0.00 0.00 0.00 100 1021.2
20181215061900 9 180 0.0 0.0 0.00 0.00 0.00 100 1021.1
20181215061658 9 157 0.0 0.0 0.00 0.00 0.00 100 1021.0
20181215061455 9 168 0.0 0.0 0.00 0.00 0.00 100 1021.0
20181215061254 9 180 0.0 0.0 0.00 0.00 0.00 100 1021.0
20181215061051 9 180 0.0 0.0 0.00 0.00 0.00 100 1021.0
20181215060647 9 337 0.0 0.0 0.00 0.00 0.00 100 1021.0
20181215060446 9 180 0.0 0.0 0.00 0.00 0.00 100 1021.1
20181215060243 8 270 0.0 0.0 0.00 0.00 0.00 100 1020.9
20181215060041 8 180 0.0 0.0 0.00 0.00 0.00 100 1020.9
20181215055839 8 135 0.0 0.0 0.00 0.00 0.00 100 1021.0
20181215055637 8 112 0.0 0.0 0.00 0.00 0.00 100 1021.1
20181215055435 8 112 0.0 0.0 0.00 0.00 0.00 100 1021.2
20181215055233 8 270 0.0 0.0 0.00 0.00 0.00 100 1021.2
20181215055031 8 337 0.0 0.0 0.00 0.00 0.00 100 1021.0
20181215054829 8 180 0.0 0.0 0.00 0.00 0.00 100 1021.1
20181215054626 8 112 0.0 0.0 0.00 0.00 0.00 100 1021.1
20181215054425 8 112 0.0 0.0 0.00 0.00 0.00 100 1021.1
20181215054222 8 112 0.0 0.0 0.00 0.00 0.00 100 1021.2
20181215054021 8 112 0.0 0.0 0.00 0.00 0.00 100 1021.2
20181215053818 8 112 0.0 0.0 0.00 0.00 0.00 100 1021.2
20181215053617 8 0 0.0 0.0 0.00 0.00 0.00 100 1021.1
20181215053414 8 0 0.0 0.0 0.00 0.00 0.00 100 1021.0
20181215053212 8 0 0.0 0.0 0.00 0.00 0.00 100 1021.0
20181215053010 8 112 0.0 0.0 0.00 0.00 0.00 100 1020.9
20181215052808 8 112 0.0 0.0 0.00 0.00 0.00 100 1020.9
20181215052606 8 112 0.0 0.0 0.00 0.00 0.00 100 1021.0
20181215052404 8 112 0.0 0.0 0.00 0.00 0.00 100 1021.0
20181215052202 8 270 0.0 0.0 0.00 0.00 0.00 100 1021.0
20181215052000 8 270 0.0 0.0 0.00 0.00 0.00 100 1021.0
20181215051556 8 270 0.0 0.0 0.00 0.00 0.00 100 1020.9
20181215051353 8 270 0.0 0.0 0.00 0.00 0.00 100 1020.9
20181215051152 8 270 0.0 0.0 0.00 0.00 0.00 100 1020.9
20181215050949 8 270 0.0 0.0 0.00 0.00 0.00 100 1020.9
20181215050748 8 270 0.0 0.0 0.00 0.00 0.00 100 1020.8
20181215050545 8 270 0.0 0.0 0.00 0.00 0.00 100 1020.8
20181215050343 8 270 0.0 0.0 0.00 0.00 0.00 100 1020.9
20181215050141 8 112 0.0 0.0 0.00 0.00 0.00 100 1021.0
20181215045939 8 112 0.0 0.0 0.00 0.00 0.00 100 1020.9
20181215045737 8 112 0.0 0.0 0.00 0.00 0.00 100 1021.0
20181215045535 8 112 0.0 0.0 0.00 0.00 0.00 100 1021.0
20181215045333 8 270 0.0 0.0 0.00 0.00 0.00 100 1021.1
20181215045131 8 270 0.0 0.0 0.00 0.00 0.00 100 1021.1
20181215044928 8 270 0.0 0.0 0.00 0.00 0.00 100 1021.2
20181215044727 8 270 0.0 0.0 0.00 0.00 0.00 100 1021.2
20181215044524 8 270 0.0 0.0 0.00 0.00 0.00 100 1021.2
20181215044323 8 247 0.0 0.0 0.00 0.00 0.00 100 1021.0
20181215043919 8 112 0.0 0.0 0.00 0.00 0.00 100 1021.0
20181215043716 8 112 0.0 0.0 0.00 0.00 0.00 100 1021.1
20181215043514 8 112 0.0 0.0 0.00 0.00 0.00 100 1021.1
20181215043312 8 112 0.0 0.0 0.00 0.00 0.00 100 1021.1
20181215043110 8 112 0.0 0.0 0.00 0.00 0.00 100 1021.1
20181215042908 8 112 0.0 0.0 0.00 0.00 0.00 100 1021.1
20181215042504 8 112 0.0 0.0 0.00 0.00 0.00 100 1021.1
20181215042302 8 112 0.0 0.0 0.00 0.00 0.00 100 1021.1
20181215042100 8 112 0.0 0.0 0.00 0.00 0.00 100 1021.1
20181215041858 8 112 0.0 0.0 0.00 0.00 0.00 100 1021.1
20181215041655 8 112 0.0 0.0 0.00 0.00 0.00 100 1021.1
20181215041251 8 112 0.0 0.0 0.00 0.00 0.00 100 1021.2
20181215041050 8 112 0.0 0.0 0.00 0.00 0.00 100 1021.2
20181215040847 8 112 0.0 0.0 0.00 0.00 0.00 100 1021.3
20181215040646 8 112 0.0 0.0 0.00 0.00 0.00 100 1021.4
20181215040443 8 112 0.0 0.0 0.00 0.00 0.00 100 1021.4
20181215040241 8 112 0.0 0.0 0.00 0.00 0.00 100 1021.5
20181215040039 8 135 0.0 0.0 0.00 0.00 0.00 100 1021.5
20181215035837 8 135 0.0 0.0 0.00 0.00 0.00 100 1021.3
20181215035635 8 135 0.0 0.0 0.00 0.00 0.00 100 1021.3
20181215035433 8 135 0.0 0.0 0.00 0.00 0.00 100 1021.5
20181215035231 8 135 0.0 0.0 0.00 0.00 0.00 100 1021.4
20181215035029 8 135 0.0 0.0 0.00 0.00 0.00 100 1021.4
20181215034826 8 135 0.0 0.0 0.00 0.00 0.00 100 1021.4
20181215034625 8 135 0.0 0.0 0.00 0.00 0.00 100 1021.4
20181215034422 8 135 0.0 0.0 0.00 0.00 0.00 100 1021.4
20181215034221 8 135 0.0 0.0 0.00 0.00 0.00 100 1021.5
20181215034018 8 135 0.0 0.0 0.00 0.00 0.00 100 1021.4
20181215033609 8 135 0.0 0.0 0.00 0.00 0.00 100 1021.4
20181215033408 8 135 0.0 0.0 0.00 0.00 0.00 100 1021.5
20181215033205 8 135 0.0 0.0 0.00 0.00 0.00 100 1021.6
20181215033003 8 135 0.0 0.0 0.00 0.00 0.00 100 1021.5
20181215032801 8 135 0.0 0.0 0.00 0.00 0.00 100 1021.5
20181215032559 8 180 0.0 0.0 0.00 0.00 0.00 100 1021.6
20181215032357 8 0 0.0 0.0 0.00 0.00 0.00 100 1021.5
20181215032155 8 0 0.0 0.0 0.00 0.00 0.00 100 1021.6
20181215031751 8 0 0.0 0.0 0.00 0.00 0.00 100 1021.7
20181215031548 8 0 0.0 0.0 0.00 0.00 0.00 100 1021.6
20181215031347 8 0 0.0 0.0 0.00 0.00 0.00 100 1021.8
20181215031144 8 0 0.0 0.0 0.00 0.00 0.00 100 1021.8
20181215030943 8 0 0.0 0.0 0.00 0.00 0.00 100 1021.7
20181215030740 8 0 0.0 0.0 0.00 0.00 0.00 100 1021.6
20181215030538 8 0 0.0 0.0 0.00 0.00 0.00 100 1021.7
20181215030336 8 0 0.0 0.0 0.00 0.00 0.00 100 1021.7
20181215030134 8 112 0.0 0.0 0.00 0.00 0.00 100 1021.7
20181215025932 8 112 0.0 0.0 0.00 0.00 0.00 100 1021.8
20181215025730 8 0 0.0 0.0 0.00 0.00 0.00 100 1021.7
20181215025528 8 0 0.0 0.0 0.00 0.00 0.00 100 1021.7
20181215025326 8 112 0.0 0.0 0.00 0.00 0.00 100 1021.7
20181215025123 8 0 0.0 0.0 0.00 0.00 0.00 100 1021.7
20181215024922 8 0 0.0 0.0 0.00 0.00 0.00 100 1021.5
20181215024515 8 0 0.0 0.0 0.00 0.00 0.00 100 1021.5
20181215024312 8 0 0.0 0.0 0.00 0.00 0.00 100 1021.4
20181215024111 8 0 0.0 0.0 0.00 0.00 0.00 100 1021.5
20181215023908 8 112 0.0 0.0 0.00 0.00 0.00 100 1021.4
20181215023706 8 0 0.0 0.0 0.00 0.00 0.00 100 1021.4
20181215023504 8 0 0.0 0.0 0.00 0.00 0.00 100 1021.4
20181215023302 7 112 0.0 0.0 0.00 0.00 0.00 100 1021.4
20181215023100 7 112 0.0 0.0 0.00 0.00 0.00 100 1021.4
20181215022251 7 112 0.0 0.0 0.00 0.00 0.00 100 1021.3
20181215021039 7 337 0.0 0.0 0.00 0.00 0.00 100 1021.3
20181215020837 7 337 0.0 0.0 0.00 0.00 0.00 100 1021.3
20181215020635 7 337 0.0 0.0 0.00 0.00 0.00 100 1021.3
20181215020433 7 337 0.0 0.0 0.00 0.00 0.00 100 1021.3
20181215020231 7 337 0.0 0.0 0.00 0.00 0.00 100 1021.2
20181215020029 7 337 0.0 0.0 0.00 0.00 0.00 100 1021.3
20181215015827 7 337 0.0 0.0 0.00 0.00 0.00 100 1021.3
20181215015422 7 337 0.0 0.0 0.00 0.00 0.00 100 1021.4
20181215015221 7 337 0.0 0.0 0.00 0.00 0.00 100 1021.3
20181215015018 7 337 0.0 0.0 0.00 0.00 0.00 100 1021.3
20181215014817 7 337 0.0 0.0 0.00 0.00 0.00 100 1021.3
20181215014614 7 337 0.0 0.0 0.00 0.00 0.00 100 1021.3
20181215014413 7 337 0.0 0.0 0.00 0.00 0.00 100 1021.4
20181215014006 7 337 0.0 0.0 0.00 0.00 0.00 100 1021.6
20181215013803 7 270 0.0 0.0 0.00 0.00 0.00 100 1021.6
20181215013601 7 270 0.0 0.0 0.00 0.00 0.00 100 1021.5
20181215013359 7 270 0.0 0.0 0.00 0.00 0.00 100 1021.5
20181215013157 7 337 0.0 0.0 0.00 0.00 0.00 100 1021.5
20181215012753 7 337 0.0 0.0 0.00 0.00 0.00 100 1021.5
20181215012550 7 337 0.0 0.0 0.00 0.00 0.00 100 1021.4
20181215012349 7 337 0.0 0.0 0.00 0.00 0.00 100 1021.6
20181215012146 7 337 0.0 0.0 0.00 0.00 0.00 100 1021.6
20181215011945 7 180 0.0 0.0 0.00 0.00 0.00 100 1021.6
20181215011742 7 135 0.0 0.0 0.00 0.00 0.00 100 1021.5
20181215011541 8 337 0.0 0.0 0.00 0.00 0.00 100 1021.7
20181215011338 8 180 0.0 0.0 0.00 0.00 0.00 100 1021.6
20181215011136 8 180 0.0 0.0 0.00 0.00 0.00 100 1021.6
20181215010934 8 180 0.0 0.0 0.00 0.00 0.00 100 1021.7
20181215010732 8 180 0.0 0.0 0.00 0.00 0.00 100 1021.8
20181215010530 8 180 0.0 0.0 0.00 0.00 0.00 100 1021.8
20181215010328 8 180 0.0 0.0 0.00 0.00 0.00 100 1021.8
20181215010126 8 180 0.0 0.0 0.00 0.00 0.00 100 1021.8
20181215005924 8 135 0.0 0.0 0.00 0.00 0.00 100 1021.8
20181215005721 8 135 0.0 0.0 0.00 0.00 0.00 100 1021.8
20181215005520 8 270 0.0 0.0 0.00 0.00 0.00 100 1021.8
20181215005317 8 270 0.0 0.0 0.00 0.00 0.00 100 1021.9
20181215005116 8 270 0.0 0.0 0.00 0.00 0.00 100 1021.9
20181215004913 8 337 0.0 0.0 0.00 0.00 0.00 100 1021.9
20181215004712 8 112 0.0 0.0 0.00 0.00 0.00 100 1021.9
20181215004509 8 112 0.0 0.0 0.00 0.00 0.00 100 1022.0
20181215004307 8 112 0.0 0.0 0.00 0.00 0.00 100 1021.9
20181215004105 8 112 0.0 0.0 0.00 0.00 0.00 100 1022.0
20181215003903 8 112 0.0 0.0 0.00 0.00 0.00 100 1021.8
20181215003701 8 135 0.0 0.0 0.00 0.00 0.00 100 1021.8
20181215003459 8 135 0.0 0.0 0.00 0.00 0.00 100 1021.8
20181215003257 8 270 0.0 0.0 0.00 0.00 0.00 100 1022.0
20181215003055 8 270 0.0 0.0 0.00 0.00 0.00 100 1022.0
20181215002852 8 270 0.0 0.0 0.00 0.00 0.00 100 1021.9
20181215002651 8 270 0.0 0.0 0.00 0.00 0.00 100 1022.0
20181215002448 8 270 0.0 0.0 0.00 0.00 0.00 100 1021.9
20181215002247 8 112 0.0 0.0 0.00 0.00 0.00 100 1021.9
20181215002044 8 337 0.0 0.0 0.00 0.00 0.00 100 1021.9
20181215001843 8 270 0.0 0.0 0.00 0.00 0.00 100 1021.8
20181215001640 8 270 0.0 0.0 0.00 0.00 0.00 100 1021.7
20181215001438 8 135 0.0 0.0 0.00 0.00 0.00 100 1021.7
20181215001236 8 135 0.0 0.0 0.00 0.00 0.00 100 1021.7
20181215001034 8 337 0.0 0.0 0.00 0.00 0.00 100 1021.6
20181215000832 8 135 0.0 0.0 0.00 0.00 0.00 100 1021.5
20181215000428 8 135 0.0 0.0 0.00 0.00 0.00 100 1021.5
20181215000226 8 135 0.0 0.0 0.00 0.00 0.00 100 1021.5
20181215000024 8 135 0.0 0.0 0.00 0.00 0.00 100 1021.6
20181214235822 8 135 0.0 0.0 0.00 0.00 0.00 100 1021.7
20181214235619 8 135 0.0 0.0 0.00 0.00 0.00 100 1021.7
20181214235418 8 135 0.0 0.0 0.00 0.00 0.00 100 1021.8
20181214235215 8 135 0.0 0.0 0.00 0.00 0.00 100 1021.9
20181214235014 7 90 0.0 0.0 0.00 0.00 0.00 100 1021.8
20181214234811 7 135 0.0 0.0 0.00 0.00 0.00 100 1021.9
20181214234610 7 135 0.0 0.0 0.00 0.00 0.00 100 1022.0
20181214234407 7 180 0.0 0.0 0.00 0.00 0.00 100 1021.9
20181214234206 7 180 0.0 0.0 0.00 0.00 0.00 100 1021.9
20181214234003 7 135 0.0 0.0 0.00 0.00 0.00 100 1022.0
20181214233801 7 146 0.0 0.0 0.00 0.00 0.00 100 1021.9
20181214233559 7 135 0.0 0.0 0.00 0.00 0.00 100 1021.9
20181214233357 7 135 0.0 0.0 0.00 0.00 0.00 100 1022.0
20181214233155 7 135 0.0 0.0 0.00 0.00 0.00 100 1022.1
20181214232953 7 135 0.0 0.0 0.00 0.00 0.00 100 1022.1
20181214232750 7 337 0.0 0.0 0.00 0.00 0.00 100 1022.0
20181214232549 7 270 0.0 0.0 0.00 0.00 0.00 100 1022.0
20181214232346 7 270 0.0 0.0 0.00 0.00 0.00 100 1022.1
20181214232145 6 112 0.0 0.0 0.00 0.00 0.00 100 1022.1
20181214231942 6 112 0.0 0.0 0.00 0.00 0.00 100 1022.1
20181214231741 7 112 0.0 0.0 0.00 0.00 0.00 100 1022.2
20181214231538 7 112 0.0 0.0 0.00 0.00 0.00 100 1022.2
20181214231336 7 112 0.0 0.0 0.00 0.00 0.00 100 1022.2
20181214231134 7 112 0.0 0.0 0.00 0.00 0.00 100 1022.1
20181214230932 7 112 0.0 0.0 0.00 0.00 0.00 100 1022.2
20181214230730 7 112 0.0 0.0 0.00 0.00 0.00 100 1022.2
20181214230528 7 112 0.0 0.0 0.00 0.00 0.00 100 1022.2
20181214230326 7 112 0.0 0.0 0.00 0.00 0.00 100 1022.2
20181214230124 7 337 0.0 0.0 0.00 0.00 0.00 100 1022.1
20181214225921 7 337 0.0 0.0 0.00 0.00 0.00 100 1022.1
20181214225720 7 337 0.0 0.0 0.00 0.00 0.00 100 1022.1
20181214225517 7 337 0.0 0.0 0.00 0.00 0.00 99 1022.2
20181214225316 7 337 0.0 0.0 0.00 0.00 0.00 99 1022.2
20181214225113 7 337 0.0 0.0 0.00 0.00 0.00 99 1022.1
20181214224912 7 337 0.0 0.0 0.00 0.00 0.00 99 1022.1
20181214224709 7 337 0.0 0.0 0.00 0.00 0.00 99 1022.1
20181214224508 7 337 0.0 0.0 0.00 0.00 0.00 99 1022.2
20181214224305 7 337 0.0 0.0 0.00 0.00 0.00 99 1022.2
20181214224104 7 270 0.0 0.0 0.00 0.00 0.00 98 1022.2
20181214223901 7 270 0.0 0.0 0.00 0.00 0.00 98 1022.3
20181214223659 7 270 0.0 0.0 0.00 0.00 0.00 98 1022.2
20181214223457 7 270 0.0 0.0 0.00 0.00 0.00 98 1022.1
20181214223255 7 270 0.0 0.0 0.00 0.00 0.00 97 1022.2
20181214223052 7 270 0.0 0.0 0.00 0.00 0.00 97 1022.1
20181214222851 7 270 0.0 0.0 0.00 0.00 0.00 98 1022.1
20181214222648 7 270 0.0 0.0 0.00 0.00 0.00 97 1022.1
20181214222447 7 270 0.0 0.0 0.00 0.00 0.00 97 1022.1
20181214222244 7 270 0.0 0.0 0.00 0.00 0.00 97 1022.2
20181214222043 7 270 0.0 0.0 0.00 0.00 0.00 97 1022.2
20181214221840 7 270 0.0 0.0 0.00 0.00 0.00 97 1022.4
20181214221639 7 270 0.0 0.0 0.00 0.00 0.00 96 1022.3
20181214221436 8 270 0.0 0.0 0.00 0.00 0.00 97 1022.2
20181214221234 8 270 0.0 0.0 0.00 0.00 0.00 97 1022.2
20181214221032 8 270 0.0 0.0 0.00 0.00 0.00 96 1022.2
20181214220830 8 270 0.0 0.0 0.00 0.00 0.00 97 1022.1
20181214220628 8 270 0.0 0.0 0.00 0.00 0.00 96 1022.2
20181214220426 8 270 0.0 0.0 0.00 0.00 0.00 97 1022.1
20181214220224 8 270 0.0 0.0 0.00 0.00 0.00 96 1022.1
20181214220022 8 270 0.0 0.0 0.00 0.00 0.00 96 1022.0
20181214215819 8 270 0.0 0.0 0.00 0.00 0.00 97 1022.1
20181214215618 8 270 0.0 0.0 0.00 0.00 0.00 97 1022.0
20181214215415 8 270 0.0 0.0 0.00 0.00 0.00 97 1021.9
20181214215214 9 270 0.0 0.0 0.00 0.00 0.00 97 1021.9
20181214215011 9 270 0.0 0.0 0.00 0.00 0.00 97 1022.0
20181214214810 9 112 0.0 0.0 0.00 0.00 0.00 97 1022.1
20181214214607 9 112 0.0 0.0 0.00 0.00 0.00 97 1022.1
20181214214405 9 135 0.0 0.0 0.00 0.00 0.00 97 1021.9
20181214214203 9 135 0.0 0.0 0.00 0.00 0.00 97 1022.0
20181214214001 9 135 0.0 0.0 0.00 0.00 0.00 97 1021.9
20181214213759 9 135 0.0 0.0 0.00 0.00 0.00 98 1021.8
20181214213557 9 135 0.0 0.0 0.00 0.00 0.00 97 1021.8
20181214213355 9 135 0.0 0.0 0.00 0.00 0.00 97 1021.8
20181214213153 9 135 0.0 0.0 0.00 0.00 0.00 98 1021.7
20181214212749 9 135 0.0 0.0 0.00 0.00 0.00 97 1021.7
20181214212345 9 180 0.0 0.0 0.00 0.00 0.00 96 1021.7
20181214212142 9 135 0.0 0.0 0.00 0.00 0.00 96 1021.7
20181214211941 9 135 0.0 0.0 0.00 0.00 0.00 95 1021.7
20181214211738 9 180 0.0 0.0 0.00 0.00 0.00 96 1021.9
20181214211536 9 0 0.0 0.0 0.00 0.00 0.00 95 1021.8
20181214211334 10 270 0.0 0.0 0.00 0.00 0.00 96 1021.8
20181214211132 10 270 0.0 0.0 0.00 0.00 0.00 96 1021.8
20181214210930 10 180 0.0 0.0 0.00 0.00 0.00 95 1021.8
20181214210728 10 180 0.0 0.0 0.00 0.00 0.00 95 1021.9
20181214210526 10 270 0.0 0.0 0.00 0.00 0.00 95 1021.8
20181214210324 10 270 0.0 0.0 0.00 0.00 0.00 96 1021.8
20181214205920 10 270 0.0 0.0 0.00 0.00 0.00 95 1021.9
20181214205717 10 270 0.0 0.0 0.00 0.00 0.00 94 1021.8
20181214205516 10 270 0.0 0.0 0.00 0.00 0.00 94 1021.9
20181214205313 10 270 0.0 0.0 0.00 0.00 0.00 94 1021.9
20181214205112 10 270 0.0 0.0 0.00 0.00 0.00 94 1021.9
20181214204909 10 270 0.0 0.0 0.00 0.00 0.00 95 1021.9
20181214204708 10 90 0.0 0.0 0.00 0.00 0.00 95 1021.8
20181214204505 10 90 0.0 0.0 0.00 0.00 0.00 95 1021.7
20181214204303 10 90 0.0 0.0 0.00 0.00 0.00 94 1021.6
20181214204101 10 90 0.0 0.0 0.00 0.00 0.00 94 1021.7
20181214203859 10 90 0.0 0.0 0.00 0.00 0.00 95 1021.7
20181214203657 10 90 0.0 0.0 0.00 0.00 0.00 95 1021.6
20181214203455 10 90 0.0 0.0 0.00 0.00 0.00 95 1021.6
20181214203252 10 135 0.0 0.0 0.00 0.00 0.00 94 1021.6
20181214203051 10 135 0.0 0.0 0.00 0.00 0.00 95 1021.6
20181214202848 10 135 0.0 0.0 0.00 0.00 0.00 94 1021.5
20181214202647 10 135 0.0 0.0 0.00 0.00 0.00 94 1021.6
20181214202444 10 90 0.0 0.0 0.00 0.00 0.00 94 1021.5
20181214202243 10 135 0.0 0.0 0.00 0.00 0.00 94 1021.6
20181214202040 10 135 0.0 0.0 0.00 0.00 0.00 93 1021.6
20181214201838 10 135 0.0 0.0 0.00 0.00 0.00 93 1021.6
20181214201636 10 135 0.0 0.0 0.00 0.00 0.00 93 1021.6
20181214201434 10 135 0.0 0.0 0.00 0.00 0.00 94 1021.5
20181214201232 10 135 0.0 0.0 0.00 0.00 0.00 93 1021.5
20181214201030 10 135 0.0 0.0 0.00 0.00 0.00 93 1021.5
20181214200828 10 135 0.0 0.0 0.00 0.00 0.00 93 1021.6
20181214200626 10 135 0.0 0.0 0.00 0.00 0.00 93 1021.5
20181214200423 10 135 0.0 0.0 0.00 0.00 0.00 93 1021.5
20181214200222 11 135 0.0 0.0 0.00 0.00 0.00 93 1021.5
20181214200019 11 135 0.0 0.0 0.00 0.00 0.00 93 1021.5
20181214195818 11 135 0.0 0.0 0.00 0.00 0.00 93 1021.5
20181214195615 11 135 0.0 0.0 0.00 0.00 0.00 93 1021.5
20181214195414 11 135 0.0 0.0 0.00 0.00 0.00 93 1021.6
20181214195211 11 135 0.0 0.0 0.00 0.00 0.00 92 1021.7
20181214195009 11 135 0.0 0.0 0.00 0.00 0.00 93 1021.7
20181214194807 11 135 0.0 0.0 0.00 0.00 0.00 93 1021.7
20181214194605 11 135 0.0 0.0 0.00 0.00 0.00 93 1021.6
20181214194403 11 135 0.0 0.0 0.00 0.00 0.00 93 1021.5
20181214194201 10 135 0.0 0.0 0.00 0.00 0.00 93 1021.5
20181214193959 10 135 0.0 0.0 0.00 0.00 0.00 93 1021.6
20181214193757 10 135 0.0 0.0 0.00 0.00 0.00 92 1021.5
20181214193554 10 135 0.0 0.0 0.00 0.00 0.00 92 1021.5
20181214193353 10 135 0.0 0.0 0.00 0.00 0.00 92 1021.7
20181214193150 10 135 0.0 0.0 0.00 0.00 0.00 92 1021.7
20181214192949 10 135 0.0 0.0 0.00 0.00 0.00 92 1021.7
20181214192746 10 135 0.0 0.0 0.00 0.00 0.00 92 1021.7
20181214192545 10 135 0.0 0.0 0.00 0.00 0.00 92 1021.7
20181214192342 10 135 0.0 0.0 0.00 0.00 0.00 92 1021.7
20181214192140 10 135 0.0 0.0 0.00 0.00 0.00 92 1021.7
20181214191938 10 135 0.0 0.0 0.00 0.00 0.00 92 1021.7
20181214191736 10 135 0.0 0.0 0.00 0.00 0.00 92 1021.8
20181214191534 10 135 0.0 0.0 0.00 0.00 0.00 91 1021.9
20181214191332 10 135 0.0 0.0 0.00 0.00 0.00 92 1021.8
20181214191130 10 135 0.0 0.0 0.00 0.00 0.00 91 1021.9
20181214190928 10 135 0.0 0.0 0.00 0.00 0.00 91 1022.0
20181214190726 10 135 0.0 0.0 0.00 0.00 0.00 92 1021.9
20181214190524 10 135 0.0 0.0 0.00 0.00 0.00 91 1021.9
20181214190322 10 135 0.0 0.0 0.00 0.00 0.00 90 1021.9
20181214185917 10 135 0.0 0.0 0.00 0.00 0.00 91 1021.8
20181214185716 10 135 0.0 0.0 0.00 0.00 0.00 91 1021.7
20181214185513 11 135 0.0 0.0 0.00 0.00 0.00 90 1021.7
20181214185311 11 135 0.0 0.0 0.00 0.00 0.00 90 1021.7
20181214185109 11 135 0.0 0.0 0.00 0.00 0.00 90 1021.7
20181214184907 11 135 0.0 0.0 0.00 0.00 0.00 90 1021.7
20181214184705 11 135 0.0 0.0 0.00 0.00 0.00 89 1021.6
20181214184503 11 135 0.0 0.0 0.00 0.00 0.00 89 1021.6
20181214184301 11 135 0.0 0.0 0.00 0.00 0.00 90 1021.5
20181214184059 11 135 0.0 0.0 0.00 0.00 0.00 90 1021.6
20181214183857 11 135 0.0 0.0 0.00 0.00 0.00 89 1021.6
20181214183655 11 135 0.0 0.0 0.00 0.00 0.00 88 1021.5
20181214183251 11 135 0.0 0.0 0.00 0.00 0.00 89 1021.4
20181214183048 11 135 0.0 0.0 0.00 0.00 0.00 89 1021.5